Flag Weather past 2 weeks in Neumarkt in der Oberpfalz, Bavaria, Germany

Now
50 °F

Fog.


Feels Like: 50 °F
Forecast: 43 / 59 °F
Wind: 2 mph from Southeast

Location: Hohenfels

Current Time: Oct 31, 2014 at 6:45:35 AM

Latest Report: Oct 31, 2014 at 5:58 AM


Visibility: 5 mi

Pressure: 30.35 "Hg

Humidity: 88%

Dew point: 46 °F

Location of Neumarkt in der OberpfalzLocation

Historic Weather in Neumarkt in der Oberpfalz — Graph

°F

Neumarkt in der Oberpfalz temperature yesterday

Maximum temperature yesterday: 52 °F (at 12:58 PM)
Minimum temperature yesterday: 41 °F (at 4:58 AM)
Average temperature yesterday: 47 °F

Past Weeks' High & Low Weather Summary

 TemperatureHumidityPressure
High64 °F (Oct 16, 1:58 PM)100% (Oct 16, 6:58 AM)30.42 "Hg (Oct 16, 6:58 AM)
Low32 °F (Oct 28, 8:58 PM)62% (Oct 28, 1:58 PM)29.61 "Hg (Oct 21, 9:04 PM)
Average48 °F90%30.14 "Hg
* Reported Oct 16 6:58 AM — Oct 31 5:58 AM, Neumarkt in der Oberpfalz, Weather by CustomWeather, © 2014

Note: Actual official high and low records may vary slightly from our data, if they occured in-between our weather recording intervals... More about our weather records

Advertising

Neumarkt in der Oberpfalz weather history for previous 24 hours

 ConditionsComfort  
Time TempWeatherWind HumidityBarometerVisibility
5:58 AM
Oct 31
50 °FFog.2 mph88%30.35 "Hg5 mi
4:58 AM50 °FFog.No wind94%30.35 "Hg5 mi
3:58 AM50 °FFog.No wind94%30.33 "Hg6 mi
2:58 AM50 °FOvercast.No wind94%30.35 "HgN/A
1:58 AM48 °FOvercast.No wind94%30.35 "HgN/A
12:58 AM50 °FOvercast.No wind88%30.35 "HgN/A
11:58 PM
Oct 30
48 °FOvercast.No wind94%30.37 "HgN/A
10:58 PM48 °FOvercast.No wind94%30.37 "HgN/A
9:58 PM48 °FOvercast.No wind94%30.37 "HgN/A
8:58 PM48 °FOvercast.2 mph94%30.37 "HgN/A
7:58 PM48 °FOvercast.1 mph94%30.36 "HgN/A
6:58 PM50 °FOvercast.2 mph82%30.36 "HgN/A
5:58 PM50 °FOvercast.No wind82%30.35 "HgN/A
4:58 PM50 °FOvercast.1 mph82%30.34 "HgN/A
3:58 PM52 °FOvercast.No wind72%30.32 "HgN/A
2:58 PM52 °FOvercast.3 mph72%30.32 "HgN/A
1:58 PM52 °FOvercast.2 mph72%30.32 "HgN/A
12:58 PM52 °FOvercast.3 mph67%30.30 "HgN/A
11:58 AM50 °FMostly cloudy.2 mph71%30.30 "HgN/A
10:58 AM50 °FBroken clouds.2 mph71%30.30 "HgN/A
9:58 AM48 °FBroken clouds.2 mph76%30.29 "HgN/A
8:58 AM45 °FOvercast.1 mph87%30.29 "HgN/A
7:58 AM43 °FFog.No wind93%30.28 "Hg5 mi
6:58 AM43 °FFog.No wind93%30.25 "Hg5 mi
Weather by CustomWeather, © 2014

See weather overviewHow to use our weather pages